STARLINK-1166, 45060

Orbit data source: Space-Track

STARLINK-1166, 45060 is a payload satellite owned by SpaceX/Seattle (US) in LEO that was launched on Wed, 29 Jan 2020 UTC via an FALCON 9 launch vehicle from the Air Force Eastern Test Range (AFETR). Payloads include a variety of satellites, spacecraft, and rockets equipped with specific instruments for various scientific and technological missions. These include communications satellites like Starlink; space stations such as the ISS; scientific satellites like the Hubble; Earth observation satellites from companies like Planet Labs, Umbra, and HawkEye 360; GPS; miniature CubeSats for education and research; and military/defense satellites.

Loading next visibility...
STARLINK-1166 details
Identifier
45060, 2020-006S
Orbit
LEO
Last TLE update7 hours ago
Origin
Flag of USSpaceX/Seattle (US)
ManufacturerSpaceX/Seattle
MissionOperational Commercial Communications
Bus & MotorSTARLINK, Unknown motor
Mass260 kg wet, ~248 kg dry
Launch date (UTC)
2020-01-29 (5 years ago)
Launch vehicle
FALCON 9
Launch site
Air Force Eastern Test Range (AFETR)
Object type
Payload
Rocket body
Debris
Shape & HBRBox + 1 Pan, 8.86 m
Radar Cross Section13.562 m², Large (>1 m²)

Expand to show TLE details & history

TLE from 7 hours ago
0 STARLINK-1166
1 45060U 20006S   24361.53708196  .00029132  00000-0  19656-2 0  9994
2 45060  53.0533  93.5598 0001749  79.1212 280.9974 15.06417694270425
Epoch: 2024-12-26T12:53Z
Definitive object data (Epoch: 2024-12-26T12:53:23.881Z)
Latitude0.00001°
Longitude164.69524°
Altitude547.806 km
Speed7.589 km/s
True Right ascension06h 14m 14s
True Declination0° 00' 00"
Sunlit
Object was in full shadow at TLE epoch
Visualization TLE readout
Latitude53.06342°
Longitude-112.36364°
Altitude552.425 km
Speed7.593 km/s
Apparent Right ascension09h 10m 28s
Apparent Declination11° 04' 14"
Sunlit
Object is in full shadow
Visualization observer readout
Local Sidereal Time19:01:10
Azimuth322.317° NNW
Elevation-30.854°
Doppler factor1
Orbital elements
Apogee altitude548.64 km
Perigee altitude546.217 km
Semi-major axis6,925.565 km
Eccentricity0.0001749
Inclination53.0533°
RAAN93.5598°
Arg. of periapsis79.1212°
True anomaly280.97773°
Mean anomaly280.9974°
Eccentric anomaly280.98756°
Mean motion3.76583 °/min
BSTAR0.0019656
Orbital period95.6 mins
Loading maneuver chart data...
Loading historical data...
Loading historical data...
Loading historical data...
Loading historical data...
Loading historical data...
Loading historical data...
Loading historical data...

STARLINK-1166 Visibility forecast

Observer location: undefined°, undefined

Span
Click to sort rows by Start time (UTC) header in descending order
Start Az.
Max El. time (UTC)
Max El. Az.
Max El.
End time (UTC)
End Az.
6 mins2024-12-27 08:08:28.507Z188.451° SSW2024-12-27 08:11:28.507Z140.605° SSE24.497°2024-12-27 08:14:28.507Z79.269° E
6 mins2024-12-27 09:48:28.507Z261.33° W2024-12-27 09:51:28.507Z338.122° N34.006°2024-12-27 09:54:28.507Z36.27° NE
6 mins2024-12-27 14:50:28.507Z333.649° NNW2024-12-27 14:53:28.507Z43.891° NE28.078°2024-12-27 14:56:28.507Z93.509° ESE
5 mins2024-12-27 16:30:28.507Z282.657° WNW2024-12-27 16:32:28.507Z231.196° WSW32.434°2024-12-27 16:35:28.507Z163.287° S
|